カタログに戻る

FSI-SAT 2

運用中アマチュア無線SSO
NORAD 68792·PAYLOAD·🇯🇵 Japan

打ち上げ Apr 23, 2026 から Rocket Lab Launch Complex 1

Loading…

次のパス (今後24時間)

TLE

最新Source: AMSAT

元期: Sep 13, 2026, 09:19 UTC

1 68792U 26088A   26256.38876209  .00002838  00000-0  19101-3 0  9996
2 68792  97.5192  43.5366 0014716 160.3638 199.8160 15.07427793 21574

AllMySatでFSI-SAT 2をリアルタイム追跡

Download on the App Store